Location: Newark
(48.3453°N, 0.5589°E)
Time: 19:59:04
(UTC+00:00)

A-11 Canister half - Pass Details

Date: 11 December 2019
Orbit: 1516 x 1683 km, 47.2° (Epoch: 18 January)

Event Time Altitude Azimuth Distance (km) Brightness Sun altitude
Rises 15:50:00 0° 279° (W) 4,827 12.3 0.9°
Reaches altitude 10° 15:53:05 10° 279° (W) 3,861 11.9 0.5°
Maximum altitude 16:02:59 77° 195° (SSW) 1,701 9.5 -0.8°
Drops below altitude 10° 16:13:07 10° 112° (ESE) 3,943 10.8 -2.2°
Sets 16:16:17 0° 111° (ESE) 4,932 11.3 -2.7°
